When you browse on this site, cookies collect data to enhance your experience and personalize the content and advertising you see.
Visit our Privacy Policy to learn more. By continuing to use the site, you agree to this use of cookies and data.
  • In Slovakia
  • List of Countries
  • For 7 days
  • Water Temperature
  • Weather Map
  • Weather Widgets
  • user-avatar
    Login

    Hourly Weather Encamp

    Today, 17 September, Tuesday

    Time Temperature Precipitation Wind Pressure Humidity
    00:00 +13°C° 0 mm 2 mps 627 mmHg 87%
    01:00 +13°C° 0 mm 2 mps 626 mmHg 86%
    02:00 +12°C° 0 mm 1 mps 626 mmHg 85%
    03:00 +12°C° 0 mm 1 mps 626 mmHg 84%
    04:00 +12°C° 0 mm 1 mps 626 mmHg 83%
    05:00 +12°C° 0 mm 1 mps 626 mmHg 81%
    06:00 +12°C° 0 mm 1 mps 626 mmHg 80%
    07:00 +15°C° 0 mm 1 mps 627 mmHg 71%
    08:00 +19°C° 0 mm 1 mps 628 mmHg 62%
    09:00 +19°C° 0 mm 0 mps 629 mmHg 54%
    10:00 +22°C° 0.1 mm 1 mps 629 mmHg 51%
    11:00 +23°C° 0.1 mm 1 mps 629 mmHg 48%
    12:00 +23°C° 0.1 mm 2 mps 629 mmHg 45%
    13:00 +23°C° 0.4 mm 2 mps 628 mmHg 49%
    14:00 +22°C° 0.4 mm 1 mps 628 mmHg 52%
    15:00 +22°C° 0.4 mm 1 mps 627 mmHg 56%
    16:00 +20°C° 0.4 mm 1 mps 626 mmHg 63%
    17:00 +18°C° 0.4 mm 1 mps 626 mmHg 71%
    18:00 +16°C° 0.4 mm 1 mps 625 mmHg 78%
    19:00 +15°C° 0.3 mm 1 mps 625 mmHg 79%
    20:00 +14°C° 0.3 mm 1 mps 625 mmHg 81%
    21:00 +14°C° 0.3 mm 1 mps 625 mmHg 82%
    22:00 +13°C° 0.5 mm 1 mps 625 mmHg 83%
    23:00 +13°C° 0.5 mm 1 mps 624 mmHg 83%

    Tomorrow, 18 September, Wednesday

    Time Temperature Precipitation Wind Pressure Humidity
    00:00 +13°C° 0.5 mm 1 mps 624 mmHg 84%
    01:00 +13°C° 0.3 mm 1 mps 624 mmHg 83%
    02:00 +13°C° 0.3 mm 1 mps 624 mmHg 83%
    03:00 +13°C° 0.3 mm 1 mps 624 mmHg 82%
    04:00 +13°C° 0.2 mm 1 mps 624 mmHg 82%
    05:00 +13°C° 0.2 mm 1 mps 624 mmHg 82%
    06:00 +13°C° 0.2 mm 1 mps 624 mmHg 82%
    07:00 +14°C° 0.3 mm 1 mps 625 mmHg 78%
    08:00 +16°C° 0.3 mm 1 mps 626 mmHg 73%
    09:00 +17°C° 0.3 mm 0 mps 627 mmHg 69%
    10:00 +19°C° 0.6 mm 1 mps 627 mmHg 68%
    11:00 +20°C° 0.6 mm 1 mps 627 mmHg 66%
    12:00 +20°C° 0.6 mm 1 mps 627 mmHg 65%
    13:00 +19°C° 1 mm 1 mps 626 mmHg 68%
    14:00 +19°C° 1 mm 1 mps 626 mmHg 70%
    15:00 +18°C° 1 mm 1 mps 626 mmHg 73%
    16:00 +15°C° 1.2 mm 1 mps 625 mmHg 79%
    17:00 +14°C° 1.2 mm 1 mps 625 mmHg 84%
    18:00 +13°C° 1.2 mm 1 mps 624 mmHg 89%
    19:00 +12°C° 0.3 mm 1 mps 624 mmHg 87%
    20:00 +12°C° 0.3 mm 1 mps 625 mmHg 85%
    21:00 +11°C° 0.3 mm 1 mps 625 mmHg 84%
    22:00 +11°C° 0 mm 1 mps 625 mmHg 82%
    23:00 +11°C° 0 mm 1 mps 625 mmHg 80%

    Day after tomorrow, 19 September, Thursday

    Time Temperature Precipitation Wind Pressure Humidity
    00:00 +11°C° 0 mm 1 mps 625 mmHg 78%
    01:00 +11°C° 0 mm 1 mps 625 mmHg 78%
    02:00 +11°C° 0 mm 1 mps 624 mmHg 77%
    03:00 +11°C° 0 mm 1 mps 624 mmHg 77%
    04:00 +11°C° 0 mm 1 mps 624 mmHg 77%
    05:00 +10°C° 0 mm 1 mps 624 mmHg 77%
    06:00 +10°C° 0 mm 1 mps 624 mmHg 77%
    07:00 +13°C° 0 mm 1 mps 626 mmHg 71%
    08:00 +15°C° 0 mm 1 mps 627 mmHg 66%
    09:00 +19°C° 0 mm 1 mps 628 mmHg 60%
    10:00 +19°C° 0.7 mm 1 mps 628 mmHg 62%
    11:00 +19°C° 0.7 mm 1 mps 628 mmHg 65%
    12:00 +19°C° 0.7 mm 1 mps 628 mmHg 67%
    13:00 +19°C° 1.5 mm 1 mps 628 mmHg 70%
    14:00 +18°C° 1.5 mm 1 mps 627 mmHg 74%
    15:00 +18°C° 1.5 mm 1 mps 627 mmHg 77%
    16:00 +16°C° 0.9 mm 1 mps 626 mmHg 80%
    17:00 +13°C° 0.9 mm 0 mps 626 mmHg 84%
    18:00 +12°C° 0.9 mm 0 mps 626 mmHg 87%
    19:00 +12°C° 0.3 mm 0 mps 626 mmHg 87%
    20:00 +11°C° 0.3 mm 0 mps 626 mmHg 87%
    21:00 +12°C° 0.3 mm 1 mps 626 mmHg 87%
    22:00 +11°C° 0 mm 1 mps 626 mmHg 88%
    23:00 +11°C° 0 mm 1 mps 626 mmHg 88%

    20 September, Friday

    Time Temperature Precipitation Wind Pressure Humidity
    00:00 +11°C° 0 mm 1 mps 626 mmHg 89%
    01:00 +11°C° 0 mm 1 mps 626 mmHg 89%
    02:00 +11°C° 0 mm 1 mps 626 mmHg 89%
    03:00 +10°C° 0 mm 1 mps 625 mmHg 89%
    04:00 +10°C° 0 mm 1 mps 625 mmHg 89%
    05:00 +10°C° 0 mm 1 mps 625 mmHg 88%
    06:00 +10°C° 0 mm 1 mps 625 mmHg 88%
    07:00 +13°C° 0 mm 1 mps 626 mmHg 81%
    08:00 +15°C° 0 mm 1 mps 627 mmHg 75%
    09:00 +18°C° 0 mm 1 mps 629 mmHg 68%
    10:00 +18°C° 0.2 mm 2 mps 629 mmHg 64%
    11:00 +19°C° 0.2 mm 2 mps 629 mmHg 60%
    12:00 +20°C° 0.2 mm 2 mps 629 mmHg 55%
    13:00 +19°C° 0.4 mm 2 mps 628 mmHg 60%
    14:00 +18°C° 0.4 mm 2 mps 628 mmHg 64%
    15:00 +18°C° 0.4 mm 2 mps 627 mmHg 69%
    16:00 +16°C° 0.1 mm 2 mps 627 mmHg 76%
    17:00 +14°C° 0.1 mm 2 mps 626 mmHg 83%
    18:00 +13°C° 0.1 mm 1 mps 625 mmHg 90%
    19:00 +12°C° 0 mm 1 mps 625 mmHg 91%
    20:00 +12°C° 0 mm 2 mps 626 mmHg 92%
    21:00 +12°C° 0 mm 2 mps 626 mmHg 93%
    22:00 +12°C° 0 mm 2 mps 625 mmHg 92%
    23:00 +10°C° 0 mm 2 mps 625 mmHg 92%

    21 September, Saturday

    Time Temperature Precipitation Wind Pressure Humidity
    00:00 +10°C° 0 mm 2 mps 625 mmHg 91%
    01:00 +10°C° 0 mm 2 mps 625 mmHg 90%
    02:00 +10°C° 0 mm 2 mps 625 mmHg 89%
    03:00 +10°C° 0 mm 2 mps 625 mmHg 88%
    04:00 +10°C° 0 mm 2 mps 624 mmHg 87%
    05:00 +10°C° 0 mm 2 mps 624 mmHg 87%
    06:00 +10°C° 0 mm 2 mps 624 mmHg 87%
    07:00 +12°C° 0.2 mm 2 mps 624 mmHg 84%
    08:00 +13°C° 0.2 mm 2 mps 625 mmHg 82%
    09:00 +14°C° 0.2 mm 2 mps 626 mmHg 79%
    10:00 +15°C° 0.8 mm 2 mps 626 mmHg 78%
    11:00 +15°C° 0.8 mm 2 mps 626 mmHg 77%
    12:00 +16°C° 0.8 mm 2 mps 626 mmHg 75%
    13:00 +15°C° 0.7 mm 2 mps 625 mmHg 80%
    14:00 +14°C° 0.7 mm 2 mps 624 mmHg 84%
    15:00 +13°C° 0.7 mm 1 mps 624 mmHg 89%
    16:00 +13°C° 0.2 mm 1 mps 623 mmHg 90%
    17:00 +13°C° 0.2 mm 2 mps 623 mmHg 92%
    18:00 +12°C° 0.2 mm 2 mps 623 mmHg 94%
    19:00 +12°C° 0.4 mm 2 mps 623 mmHg 94%
    20:00 +12°C° 0.4 mm 2 mps 624 mmHg 94%
    21:00 +12°C° 0.4 mm 2 mps 624 mmHg 93%
    22:00 +12°C° 1.6 mm 2 mps 624 mmHg 94%
    23:00 +12°C° 1.6 mm 2 mps 624 mmHg 95%

    22 September, Sunday

    Time Temperature Precipitation Wind Pressure Humidity
    00:00 +12°C° 1.6 mm 2 mps 624 mmHg 96%
    01:00 +12°C° 0.4 mm 2 mps 624 mmHg 95%
    02:00 +12°C° 0.4 mm 2 mps 623 mmHg 93%
    03:00 +12°C° 0.4 mm 2 mps 623 mmHg 91%
    04:00 +12°C° 0.3 mm 2 mps 623 mmHg 92%
    05:00 +12°C° 0.3 mm 2 mps 623 mmHg 92%
    06:00 +12°C° 0.3 mm 2 mps 623 mmHg 92%
    07:00 +13°C° 0.2 mm 2 mps 624 mmHg 87%
    08:00 +14°C° 0.2 mm 2 mps 625 mmHg 82%
    09:00 +15°C° 0.2 mm 1 mps 626 mmHg 77%
    10:00 +16°C° 0.2 mm 2 mps 626 mmHg 72%
    11:00 +17°C° 0.2 mm 2 mps 627 mmHg 68%
    12:00 +18°C° 0.2 mm 2 mps 627 mmHg 63%
    13:00 +18°C° 0.8 mm 2 mps 627 mmHg 68%
    14:00 +17°C° 0.8 mm 2 mps 626 mmHg 73%
    15:00 +16°C° 0.8 mm 2 mps 626 mmHg 78%
    16:00 +15°C° 0.5 mm 1 mps 626 mmHg 83%
    17:00 +14°C° 0.5 mm 1 mps 626 mmHg 88%
    18:00 +11°C° 0.5 mm 0 mps 626 mmHg 92%
    19:00 +12°C° 0 mm 1 mps 626 mmHg 93%
    20:00 +11°C° 0 mm 1 mps 626 mmHg 94%
    21:00 +11°C° 0 mm 1 mps 627 mmHg 94%
    22:00 +11°C° 0 mm 1 mps 627 mmHg 95%
    23:00 +11°C° 0 mm 1 mps 627 mmHg 95%
    Show more